OHDAC EFTP-EFPO

Flight info

Callsign OHDAC
Flight time 0h 24m
Altitude 8000
Route XORMU
Aircraft DA42/L-SBDGRY/S

Departure

Time 2026-04-27 19:30
Airport Tampere-Pirkkala Airport (EFTP)

Arrival

Time 2026-04-27 19:54
Airport Pori Airport (EFPO)
Time Latitude Longitude Altitude Speed Heading
2026-04-27 19:23 61.42072 23.62367 370 ft 0 kts 337°
2026-04-27 19:27 61.42067 23.62300 370 ft 16 kts 243°
2026-04-27 19:27 61.42018 23.62068 371 ft 21 kts 252°
2026-04-27 19:27 61.41916 23.61992 371 ft 12 kts 165°
2026-04-27 19:27 61.41914 23.61802 371 ft 42 kts 236°
2026-04-27 19:28 61.41786 23.61261 373 ft 34 kts 242°
2026-04-27 19:28 61.41690 23.60836 378 ft 33 kts 245°
2026-04-27 19:28 61.41582 23.60637 381 ft 25 kts 152°
2026-04-27 19:28 61.41516 23.60703 381 ft 12 kts 146°
2026-04-27 19:29 61.41529 23.60951 378 ft 25 kts 63°
2026-04-27 19:29 61.41710 23.61741 399 ft 82 kts 58°
2026-04-27 19:29 61.41920 23.62860 718 ft 84 kts 73°
2026-04-27 19:29 61.41621 23.64008 937 ft 114 kts 154°
2026-04-27 19:30 61.40866 23.64011 1325 ft 109 kts 206°
2026-04-27 19:30 61.40283 23.63044 1662 ft 98 kts 249°
2026-04-27 19:30 61.39993 23.61833 2004 ft 91 kts 266°
2026-04-27 19:30 61.39809 23.60611 2331 ft 90 kts 273°
2026-04-27 19:31 61.39663 23.59284 2616 ft 95 kts 276°
2026-04-27 19:31 61.39529 23.57775 2814 ft 108 kts 276°
2026-04-27 19:31 61.39391 23.56318 3197 ft 101 kts 279°
2026-04-27 19:31 61.39317 23.54938 3560 ft 94 kts 287°
2026-04-27 19:32 61.39283 23.53600 3896 ft 93 kts 288°
2026-04-27 19:32 61.39256 23.52250 4230 ft 94 kts 288°
2026-04-27 19:32 61.39232 23.50895 4570 ft 94 kts 288°
2026-04-27 19:32 61.39207 23.49533 4892 ft 95 kts 288°
2026-04-27 19:33 61.39182 23.48155 5221 ft 96 kts 288°
2026-04-27 19:33 61.39166 23.47237 5440 ft 96 kts 288°
2026-04-27 19:33 61.39131 23.45383 5895 ft 97 kts 288°
2026-04-27 19:33 61.39107 23.43999 6234 ft 97 kts 288°
2026-04-27 19:34 61.39081 23.42580 6560 ft 98 kts 288°
2026-04-27 19:34 61.39056 23.41169 6880 ft 99 kts 288°
2026-04-27 19:34 61.39030 23.39735 7208 ft 99 kts 287°
2026-04-27 19:34 61.39003 23.38310 7550 ft 100 kts 287°
2026-04-27 19:35 61.38977 23.36859 7898 ft 100 kts 286°
2026-04-27 19:35 61.38959 23.35341 8086 ft 115 kts 285°
2026-04-27 19:35 61.38941 23.33517 8108 ft 136 kts 282°
2026-04-27 19:35 61.38900 23.31439 8104 ft 148 kts 279°
2026-04-27 19:36 61.38851 23.29248 8092 ft 154 kts 279°
2026-04-27 19:36 61.38800 23.27015 8099 ft 156 kts 279°
2026-04-27 19:36 61.38753 23.24752 8097 ft 157 kts 279°
2026-04-27 19:36 61.38706 23.22480 8095 ft 157 kts 279°
2026-04-27 19:37 61.38663 23.20153 8086 ft 165 kts 279°
2026-04-27 19:37 61.38615 23.17700 8101 ft 170 kts 279°
2026-04-27 19:37 61.38565 23.15227 8098 ft 173 kts 278°
2026-04-27 19:37 61.38513 23.12708 8099 ft 174 kts 278°
2026-04-27 19:38 61.38459 23.10187 8097 ft 175 kts 278°
2026-04-27 19:38 61.38406 23.07634 8096 ft 176 kts 278°
2026-04-27 19:38 61.38353 23.05085 8098 ft 176 kts 278°
2026-04-27 19:38 61.38300 23.02541 8100 ft 176 kts 278°
2026-04-27 19:39 61.38245 22.99960 8103 ft 177 kts 278°
2026-04-27 19:39 61.38189 22.97388 8104 ft 177 kts 278°
2026-04-27 19:39 61.38133 22.94816 8105 ft 177 kts 279°
2026-04-27 19:39 61.38078 22.92263 8104 ft 177 kts 279°
2026-04-27 19:40 61.38022 22.89706 8108 ft 177 kts 279°
2026-04-27 19:40 61.37964 22.87135 8111 ft 177 kts 278°
2026-04-27 19:40 61.37909 22.84571 7982 ft 179 kts 279°
2026-04-27 19:40 61.37852 22.81977 7771 ft 179 kts 278°
2026-04-27 19:41 61.37791 22.79389 7569 ft 180 kts 278°
2026-04-27 19:41 61.37732 22.76787 7363 ft 179 kts 279°
2026-04-27 19:41 61.37669 22.74179 7171 ft 179 kts 280°
2026-04-27 19:41 61.37610 22.71603 6974 ft 179 kts 280°
2026-04-27 19:42 61.37550 22.69002 6775 ft 179 kts 280°
2026-04-27 19:42 61.37490 22.66410 6574 ft 178 kts 280°
2026-04-27 19:42 61.37429 22.63817 6376 ft 178 kts 280°
2026-04-27 19:42 61.37367 22.61284 6188 ft 177 kts 280°
2026-04-27 19:43 61.37305 22.58691 5989 ft 176 kts 280°
2026-04-27 19:43 61.37243 22.56165 5796 ft 176 kts 280°
2026-04-27 19:43 61.37181 22.53619 5603 ft 175 kts 279°
2026-04-27 19:43 61.37118 22.51097 5411 ft 175 kts 280°
2026-04-27 19:44 61.37057 22.48569 5216 ft 174 kts 280°
2026-04-27 19:44 61.36993 22.46042 5025 ft 174 kts 280°
2026-04-27 19:44 61.36929 22.43533 4835 ft 173 kts 280°
2026-04-27 19:44 61.36865 22.41008 4644 ft 173 kts 280°
2026-04-27 19:45 61.36800 22.38505 4453 ft 173 kts 280°
2026-04-27 19:45 61.36736 22.36012 4266 ft 173 kts 279°
2026-04-27 19:45 61.36671 22.33492 4074 ft 172 kts 278°
2026-04-27 19:45 61.36605 22.31023 3885 ft 172 kts 278°
2026-04-27 19:46 61.36539 22.28544 3697 ft 171 kts 278°
2026-04-27 19:46 61.36475 22.26084 3455 ft 173 kts 278°
2026-04-27 19:46 61.36409 22.23575 3225 ft 173 kts 278°
2026-04-27 19:46 61.36341 22.21089 3006 ft 171 kts 278°
2026-04-27 19:47 61.36274 22.18600 2798 ft 169 kts 278°
2026-04-27 19:47 61.36205 22.16178 2603 ft 168 kts 278°
2026-04-27 19:47 61.36139 22.13766 2414 ft 167 kts 277°
2026-04-27 19:47 61.36075 22.11359 2230 ft 165 kts 278°
2026-04-27 19:48 61.36179 22.09125 2168 ft 141 kts 307°
2026-04-27 19:48 61.36676 22.07449 2171 ft 133 kts 310°
2026-04-27 19:48 61.37178 22.05911 2176 ft 128 kts 315°
2026-04-27 19:48 61.37691 22.04408 2173 ft 126 kts 316°
2026-04-27 19:49 61.38207 22.02940 2194 ft 119 kts 316°
2026-04-27 19:49 61.38681 22.01560 2174 ft 114 kts 317°
2026-04-27 19:49 61.39141 22.00237 2174 ft 111 kts 317°
2026-04-27 19:49 61.39597 21.98930 2135 ft 113 kts 318°
2026-04-27 19:50 61.40072 21.97585 2005 ft 117 kts 317°
2026-04-27 19:50 61.40520 21.96282 1885 ft 96 kts 317°
2026-04-27 19:50 61.40850 21.95284 1733 ft 73 kts 319°
2026-04-27 19:50 61.41124 21.94488 1625 ft 62 kts 322°
2026-04-27 19:51 61.41363 21.93805 1543 ft 56 kts 323°
2026-04-27 19:51 61.41587 21.93172 1469 ft 52 kts 324°
2026-04-27 19:51 61.41814 21.92549 1442 ft 60 kts 323°
2026-04-27 19:51 61.42108 21.91761 1360 ft 74 kts 319°
2026-04-27 19:52 61.42415 21.90872 1244 ft 75 kts 317°
2026-04-27 19:52 61.42615 21.90281 1168 ft 75 kts 317°
2026-04-27 19:52 61.43041 21.89058 1034 ft 83 kts 315°
2026-04-27 19:52 61.43393 21.88042 912 ft 89 kts 313°
2026-04-27 19:53 61.44133 21.85879 651 ft 93 kts 311°
2026-04-27 19:53 61.44513 21.84786 527 ft 93 kts 311°
2026-04-27 19:53 61.44900 21.83665 380 ft 95 kts 309°
2026-04-27 19:54 61.45282 21.82540 244 ft 95 kts 308°
2026-04-27 19:54 61.45670 21.81425 102 ft 94 kts 309°
2026-04-27 19:54 61.46020 21.80434 36 ft 60 kts 304°
2026-04-27 19:54 61.46162 21.80025 38 ft 31 kts 306°
2026-04-27 19:55 61.46308 21.79565 40 ft 23 kts 271°
2026-04-27 19:55 61.46304 21.79522 40 ft 0 kts 252°
2026-04-27 19:55 61.46226 21.79355 40 ft 27 kts 221°
2026-04-27 19:55 61.46126 21.79162 40 ft 17 kts 222°
2026-04-27 19:56 61.46041 21.79004 41 ft 14 kts 224°
2026-04-27 19:56 61.46035 21.78822 41 ft 12 kts 305°
2026-04-27 19:56 61.46037 21.78680 42 ft 6 kts 302°
2026-04-27 19:56 61.46041 21.78665 42 ft 0 kts 316°